Station MISP4 - 9759938 - Mona Island, PR Image indicating link to RSS feed of recent meteorological observations for station MISP4


Conditions at MISP4 as of
(6:54 pm AST)
2254 GMT on 07/18/2024:
     

Click on the graph icon in the table below to see a time series plot of the last five days of that observation.

5-day plot - Atmospheric Pressure Atmospheric Pressure (PRES):30.01 in
5-day plot - Air Temperature Air Temperature (ATMP): 84.9 °F
5-day plot - Water Temperature Water Temperature (WTMP): 86.9 °F
NOS Water Level Observation Network Water Level
Previous observations
TIME
(AST)
5-day plot - Wind Direction
WDIR
 
5-day plot - Wind Speed
WSPD
kts
5-day plot - Wind Gust
GST
kts
5-day plot - Wave Height
WVHT
ft
5-day plot - Dominant Wave Period
DPD
sec
5-day plot - Average Wave Period
APD
sec
5-day plot - Mean Wave Direction
MWD
 
5-day plot - Atmospheric Pressure
PRES
in
5-day plot - Pressure Tendency
PTDY
in
5-day plot - Air Temperature
ATMP
°F
5-day plot - Water Temperature
WTMP
°F
5-day plot - Dew Point
DEWP
°F
5-day plot - Salinity
SAL
psu
5-day plot - Visibility
VIS
nmi
5-day plot - Tide (above MLLW)
TIDE
ft
2024-07-18 06:48 pm-------30.01- 85.1 87.1----
2024-07-18 06:42 pm-------30.01- 85.1 87.1----
2024-07-18 06:36 pm-------30.01- 85.1 87.1----
2024-07-18 06:30 pm-------30.01- 85.3 87.1----
2024-07-18 06:24 pm-------30.00- 85.5 87.1----
2024-07-18 06:18 pm-------30.00- 85.5 87.1----
2024-07-18 06:12 pm-------30.00- 85.6 87.1----
2024-07-18 06:06 pm-------30.00- 85.8 87.1----
2024-07-18 06:00 pm-------30.01-0.01 86.0 87.1----
2024-07-18 05:54 pm-------30.01- 86.2 87.1----
2024-07-18 05:48 pm-------30.00- 86.2 87.1----
2024-07-18 05:42 pm-------30.00- 86.2 87.1----
2024-07-18 05:36 pm-------30.00- 86.5 87.1----
2024-07-18 05:30 pm-------30.00- 86.4 87.1----
2024-07-18 05:24 pm-------30.00- 86.5 87.1----
2024-07-18 05:18 pm-------30.00- 86.7 87.3----
2024-07-18 05:12 pm-------30.00- 86.7 87.3----
2024-07-18 05:06 pm-------30.00- 86.7 87.3----
2024-07-18 05:00 pm-------30.00-0.03 86.5 87.3----
2024-07-18 04:54 pm-------30.00- 86.7 87.3----
2024-07-18 04:48 pm-------30.00- 87.1 87.3----
2024-07-18 04:42 pm-------30.00- 87.1 87.3----
2024-07-18 04:36 pm-------30.00- 87.4 87.3----
2024-07-18 04:30 pm-------30.00- 87.6 87.3----
2024-07-18 04:24 pm-------30.00- 88.2 87.3----
2024-07-18 04:18 pm-------30.00- 88.2 87.3----
2024-07-18 04:12 pm-------30.00- 88.0 87.3----
2024-07-18 04:06 pm-------30.00- 87.4 87.3----
2024-07-18 04:00 pm-------30.00-0.05 87.3 87.3----
2024-07-18 03:54 pm-------30.00- 87.8 87.1----
2024-07-18 03:48 pm-------30.01- 87.6 87.1----
2024-07-18 03:42 pm-------30.01- 87.8 87.1----
2024-07-18 03:36 pm-------30.01- 88.0 87.1----
2024-07-18 03:30 pm-------30.01- 87.8 87.1----
2024-07-18 03:24 pm-------30.01- 87.6 87.1----
2024-07-18 03:18 pm-------30.01- 88.0 87.1----
2024-07-18 03:12 pm-------30.01- 88.0 87.3----
2024-07-18 03:06 pm-------30.01- 88.5 87.1----
2024-07-18 03:00 pm-------30.02-0.05 88.5 87.1----
2024-07-18 02:54 pm-------30.02- 88.7 87.1----
2024-07-18 02:48 pm-------30.02- 88.7 86.9----
2024-07-18 02:42 pm-------30.02- 88.5 86.9----
2024-07-18 02:36 pm-------30.02- 89.1 86.9----
2024-07-18 02:30 pm-------30.02- 88.9 86.9----
2024-07-18 02:24 pm-------30.02- 89.6 86.9----
2024-07-18 02:18 pm-------30.03- 89.4 86.7----
2024-07-18 02:12 pm-------30.02- 89.6 86.7----
2024-07-18 02:06 pm-------30.03- 89.1 86.7----
2024-07-18 02:00 pm-------30.03-0.04 88.7 86.7----
2024-07-18 01:54 pm-------30.03- 89.1 86.7----
2024-07-18 01:48 pm-------30.03-- 86.7----
2024-07-18 01:42 pm-------30.04-- 86.5----
2024-07-18 01:36 pm-------30.04-- 86.5----
2024-07-18 01:30 pm-------30.04- 88.3 86.5----
2024-07-18 01:24 pm-------30.04- 88.2 86.5----
2024-07-18 01:18 pm-------30.04- 88.0 86.7----
2024-07-18 01:12 pm-------30.05- 88.0 86.5----
2024-07-18 01:06 pm-------30.05- 88.3 86.5----
2024-07-18 01:00 pm-------30.05-0.01 88.9 86.5----
2024-07-18 12:54 pm-------30.05- 88.0 86.4----
2024-07-18 12:48 pm-------30.05- 88.7 86.2----
2024-07-18 12:42 pm-------30.05- 88.0 86.4----
2024-07-18 12:36 pm-------30.05- 88.5 86.4----
2024-07-18 12:30 pm-------30.05- 89.2 86.4----
2024-07-18 12:24 pm-------30.06- 88.3 86.2----
2024-07-18 12:18 pm-------30.06- 88.3 86.2----
2024-07-18 12:12 pm-------30.06- 88.7 86.0----
2024-07-18 12:06 pm-------30.06- 88.7 85.8----
2024-07-18 12:00 pm-------30.06-0.01 88.9 85.6----
2024-07-18 11:54 am-------30.06- 88.9 85.6----
2024-07-18 11:48 am-------30.06- 88.9 85.6----
2024-07-18 11:42 am-------30.06- 88.5 85.6----
2024-07-18 11:36 am-------30.06- 88.3 85.6----
2024-07-18 11:30 am-------30.07- 88.7 85.6----
2024-07-18 11:24 am-------30.07- 88.3 85.6----
2024-07-18 11:18 am-------30.07- 87.8 85.5----
2024-07-18 11:12 am-------30.07- 87.8 85.5----
2024-07-18 11:06 am-------30.07- 87.8 85.5----
2024-07-18 11:00 am-------30.07+0.00 87.6 85.5----
2024-07-18 10:54 am-------30.06- 87.3 85.3----
2024-07-18 10:48 am-------30.06- 87.6 85.3----
2024-07-18 10:42 am-------30.07- 87.3 85.3----
2024-07-18 10:36 am-------30.07- 87.3 85.1----
2024-07-18 10:30 am-------30.07- 87.8 85.1----
2024-07-18 10:24 am-------30.07- 88.2 85.1----
2024-07-18 10:18 am-------30.07- 88.2 85.1----
2024-07-18 10:12 am-------30.06- 88.0 85.1----
2024-07-18 10:06 am-------30.06- 87.8 84.9----
2024-07-18 10:00 am-------30.06+0.00 87.6 84.9----
2024-07-18 09:54 am-------30.06- 87.8 84.9----
2024-07-18 09:48 am-------30.07- 87.6 84.9----
2024-07-18 09:42 am-------30.07- 87.6 84.9----
2024-07-18 09:36 am-------30.07- 87.4 84.9----
2024-07-18 09:30 am-------30.07- 87.3 84.9----
2024-07-18 09:24 am-------30.07- 86.7 84.7----
2024-07-18 09:18 am-------30.07- 86.5 84.7----
2024-07-18 09:12 am-------30.07- 86.4 84.7----
2024-07-18 09:06 am-------30.07- 86.4 84.7----
2024-07-18 09:00 am-------30.07+0.04 86.2 84.7----
2024-07-18 08:54 am-------30.07- 86.2 84.7----
2024-07-18 08:48 am-------30.07- 85.8 84.7----
2024-07-18 08:42 am-------30.07- 85.6 84.7----
2024-07-18 08:36 am-------30.07- 85.3 84.7----
2024-07-18 08:30 am-------30.07- 84.9 84.7----
2024-07-18 08:24 am-------30.07- 84.7 84.7----
2024-07-18 08:18 am-------30.07- 84.6 84.7----
2024-07-18 08:12 am-------30.07- 84.4 84.7----
2024-07-18 08:06 am-------30.07- 84.2 84.7----
2024-07-18 08:00 am-------30.07+0.04 83.8 84.7----
2024-07-18 07:54 am-------30.06- 83.8 84.7----
2024-07-18 07:48 am-------30.06-- 84.7----
2024-07-18 07:42 am-------30.06-- 84.7----
2024-07-18 07:36 am-------30.06-- 84.7----
2024-07-18 07:30 am-------30.06- 82.4 84.7----
2024-07-18 07:24 am-------30.06- 82.0 84.7----
2024-07-18 07:18 am-------30.06- 81.9 84.7----
2024-07-18 07:12 am-------30.06- 81.5 84.7----
2024-07-18 07:06 am-------30.06- 81.1 84.7----
2024-07-18 07:00 am-------30.06+0.02 81.0 84.7----
2024-07-18 06:54 am-------30.06- 80.8 84.7----
2024-07-18 06:48 am-------30.05- 80.6 84.7----
2024-07-18 06:42 am-------30.05- 80.4 84.9----
2024-07-18 06:36 am-------30.05- 80.2 84.9----
2024-07-18 06:30 am-------30.05- 80.1 84.9----
2024-07-18 06:24 am-------30.05- 80.1 84.9----
2024-07-18 06:18 am-------30.04- 79.9 84.9----
2024-07-18 06:12 am-------30.04- 79.9 84.9----
2024-07-18 06:06 am-------30.04- 79.7 84.9----
2024-07-18 06:00 am-------30.04+0.00 79.7 84.9----
2024-07-18 05:54 am-------30.04- 79.7 84.9----
2024-07-18 05:48 am-------30.03- 79.7 84.9----
2024-07-18 05:42 am-------30.03- 79.7 84.9----
2024-07-18 05:36 am-------30.03- 79.7 84.9----
2024-07-18 05:30 am-------30.03- 79.9 84.9----
2024-07-18 05:24 am-------30.03- 79.9 84.9----
2024-07-18 05:18 am-------30.03- 80.1 85.1----
2024-07-18 05:12 am-------30.03- 80.2 85.1----
2024-07-18 05:06 am-------30.03- 80.2 85.1----
2024-07-18 05:00 am-------30.03-0.01 80.2 85.1----
2024-07-18 04:54 am-------30.03- 80.1 85.1----
2024-07-18 04:48 am-------30.03-- 85.1----
2024-07-18 04:42 am-------30.03-- 85.1----
2024-07-18 04:36 am-------30.03-- 85.1----
2024-07-18 04:30 am-------30.03- 80.2 85.1----
2024-07-18 04:24 am-------30.03- 80.2 85.1----
2024-07-18 04:18 am-------30.03- 80.2 85.3----
2024-07-18 04:12 am-------30.03- 80.4 85.3----
2024-07-18 04:06 am-------30.03- 80.4 85.3----
2024-07-18 04:00 am-------30.03-0.02 80.4 85.3----
2024-07-18 03:54 am-------30.04- 80.6 85.3----
2024-07-18 03:48 am-------30.04- 80.6 85.3----
2024-07-18 03:42 am-------30.04- 80.6 85.3----
2024-07-18 03:36 am-------30.04- 80.6 85.3----
2024-07-18 03:30 am-------30.04- 80.6 85.3----
2024-07-18 03:24 am-------30.04- 80.6 85.5----
2024-07-18 03:18 am-------30.04- 80.8 85.5----
2024-07-18 03:12 am-------30.04- 81.0 85.5----
2024-07-18 03:06 am-------30.04- 80.8 85.5----
2024-07-18 03:00 am-------30.04-0.03 80.6 85.5----
2024-07-18 02:54 am-------30.03- 80.6 85.5----
2024-07-18 02:48 am-------30.04- 80.8 85.5----
2024-07-18 02:42 am-------30.04- 81.0 85.5----
2024-07-18 02:36 am-------30.04- 81.0 85.5----
2024-07-18 02:30 am-------30.04- 81.0 85.5----
2024-07-18 02:24 am-------30.04- 81.1 85.5----
2024-07-18 02:18 am-------30.05- 81.3 85.5----
2024-07-18 02:12 am-------30.05- 81.3 85.5----
2024-07-18 02:06 am-------30.05- 81.3 85.5----
2024-07-18 02:00 am-------30.05-0.03 81.1 85.5----
2024-07-18 01:54 am-------30.05- 81.3 85.5----
2024-07-18 01:48 am-------30.05- 81.5 85.5----
2024-07-18 01:42 am-------30.05- 81.5 85.5----
2024-07-18 01:36 am-------30.05- 81.5 85.5----
2024-07-18 01:30 am-------30.05- 81.7 85.5----
2024-07-18 01:24 am-------30.05- 81.9 85.5----
2024-07-18 01:18 am-------30.06- 82.0 85.6----
2024-07-18 01:12 am-------30.06- 82.4 85.6----
2024-07-18 01:06 am-------30.06- 82.4 85.6----
2024-07-18 01:00 am-------30.06-0.01 82.4 85.6----
2024-07-18 12:54 am-------30.06- 82.4 85.6----
2024-07-18 12:48 am-------30.06- 82.6 85.6----
2024-07-18 12:42 am-------30.06- 82.6 85.6----
2024-07-18 12:36 am-------30.06- 82.8 85.6----
2024-07-18 12:30 am-------30.06- 82.2 85.6----
2024-07-18 12:24 am-------30.06- 82.4 85.6----
2024-07-18 12:18 am-------30.06- 82.4 85.6----
2024-07-18 12:12 am-------30.06- 82.6 85.6----
2024-07-18 12:06 am-------30.06- 82.4 85.6----
2024-07-18 12:00 am-------30.06+0.00 82.6 85.6----
2024-07-17 11:54 pm-------30.06- 82.4 85.6----
2024-07-17 11:48 pm-------30.06- 82.4 85.6----
2024-07-17 11:42 pm-------30.07- 82.4 85.6----
2024-07-17 11:36 pm-------30.07- 82.8 85.8----
2024-07-17 11:30 pm-------30.07- 82.4 85.8----
2024-07-17 11:24 pm-------30.07- 82.8 85.8----
2024-07-17 11:18 pm-------30.07- 82.8 85.8----
2024-07-17 11:12 pm-------30.07- 82.2 85.8----
2024-07-17 11:06 pm-------30.07- 81.7 85.8----
2024-07-17 11:00 pm-------30.08+0.02 82.0 85.8----
2024-07-17 10:54 pm-------30.08- 82.2 85.8----
2024-07-17 10:48 pm-------30.07- 82.0 86.0----
2024-07-17 10:42 pm-------30.07- 82.2 86.0----
2024-07-17 10:36 pm-------30.07- 82.2 86.0----
2024-07-17 10:30 pm-------30.07- 82.4 86.0----
2024-07-17 10:24 pm-------30.07- 82.4 86.0----
2024-07-17 10:18 pm-------30.07- 82.4 86.0----
2024-07-17 10:12 pm-------30.07- 82.4 86.0----
2024-07-17 10:06 pm-------30.07- 82.4 86.0----
2024-07-17 10:00 pm-------30.07- 82.4 86.2----
2024-07-17 09:54 pm-------30.07- 82.6 86.2----
2024-07-17 09:48 pm-------30.07- 82.4 86.2----
2024-07-17 09:42 pm-------30.06- 82.4 86.4----
2024-07-17 09:36 pm-------30.06- 82.4 86.4----
2024-07-17 09:30 pm-------30.06- 82.2 86.4----
2024-07-17 09:24 pm-------30.06- 82.2 86.4----
2024-07-17 09:18 pm-------30.07- 82.8 86.4----
2024-07-17 09:12 pm-------30.06- 82.9 86.4----
2024-07-17 09:06 pm-------30.06- 83.3 86.4----
2024-07-17 09:00 pm-------30.06- 83.7 86.5----
2024-07-17 08:54 pm-------30.06- 83.8 86.7----
2024-07-17 08:48 pm-------30.06- 84.0 86.7----
2024-07-17 08:42 pm-------30.06- 84.4 86.9----
2024-07-17 08:36 pm-------30.06- 84.6 87.1----
2024-07-17 08:30 pm-------30.06- 84.4 87.1----
2024-07-17 08:24 pm-------30.06- 84.2 87.1----
2024-07-17 08:18 pm-------30.06- 84.2 87.1----
2024-07-17 08:12 pm-------30.05- 84.0 87.3----
2024-07-17 08:06 pm-------30.05- 84.0 87.1----
2024-07-17 08:00 pm-------30.05+0.04 84.0 87.1----
2024-07-17 07:54 pm-------30.05- 84.0 87.1----
2024-07-17 07:48 pm-------30.05- 84.0 87.3----
2024-07-17 07:42 pm-------30.05- 84.2 87.1----
2024-07-17 07:36 pm-------30.05- 84.4 87.3----
2024-07-17 07:30 pm-------30.05- 84.4 87.3----
2024-07-17 07:24 pm-------30.05- 84.7 87.1----
2024-07-17 07:18 pm---------- 87.3----
2024-07-17 07:12 pm---------- 87.3----
2024-07-17 07:06 pm---------- 87.3----
2024-07-17 07:00 pm---------- 87.3----
2024-07-17 06:54 pm---------- 87.3----